Weather History for Duluth Sky Harbor, MN

Change the Weather History Date:

Wednesday, August 13, 2014

  Actual Average Record
Temperature  
Mean Temperature 68 °F -  
Max Temperature 75 °F 76 °F 89 °F (1965)
Min Temperature 62 °F 56 °F 36 °F (1950)
Cooling Degree Days 4    
Growing Degree Days 18 (Base 50)    
Moisture  
Dew Point 59 °F    
Average Humidity 74    
Maximum Humidity 88    
Minimum Humidity 53    
Precipitation  
Precipitation 0.00 in - - ()
Sea Level Pressure  
Sea Level Pressure 30.07 in    
Wind  
Wind Speed 6 mph (ENE)    
Max Wind Speed 14 mph    
Max Gust Speed -    
Visibility 10 miles    
Events      
Averages and records for this station are not official NWS values.
T = Trace of Precipitation, MM = Missing Value Source: NWS Daily Summary

Daily Weather History Graph

Daily Weather History Graph

Search for Another Location

Airport:

Trip Planner

Search our weather history database for the weather conditions in past years. The results will help you decide how hot, cold, wet, or windy it might be!

Date:

Astronomy

Aug. 13, 2014 Rise Set
Actual Time 6:03 AM CDT 8:21 PM CDT
Civil Twilight 5:30 AM CDT 8:54 PM CDT
Nautical Twilight 4:48 AM CDT 9:36 PM CDT
Astronomical Twilight 4:01 AM CDT 10:23 PM CDT
Moon 9:49 PM CDT (8/13) 9:48 AM CDT (8/13)
Length of Visible Light 15h 24m
Length of Day
14h 18m
Waning Gibbous, 87% of the Moon is Illuminated
Aug 13
Waning Gibbous
Aug 17
Last Quarter
Aug 25
New
Sep 2
First Quarter
Sep 8
Full

Hourly Weather History & Observations

Time (CDT) Temp. Dew Point Humidity Pressure Visibility Wind Dir Wind Speed Gust Speed Precip Events Conditions
12:13 AM 66.2 °F 62.6 °F 88% 29.97 in 10.0 mi SSW 8.1 mph - N/A   Clear
12:34 AM 66.2 °F 62.6 °F 88% 29.97 in 10.0 mi SW 5.8 mph - N/A   Clear
12:53 AM 66.2 °F 62.6 °F 88% 29.97 in 10.0 mi SSW 3.5 mph - N/A   Clear
1:13 AM 66.2 °F 62.6 °F 88% 29.98 in 10.0 mi Calm Calm - N/A   Clear
1:34 AM 69.8 °F 62.6 °F 78% 29.97 in 10.0 mi NNW 8.1 mph - N/A   Clear
1:53 AM 68.0 °F 62.6 °F 83% 29.98 in 10.0 mi NNW 5.8 mph - N/A   Clear
2:13 AM 68.0 °F 62.6 °F 83% 29.98 in 10.0 mi NNW 4.6 mph - N/A   Clear
2:34 AM 66.2 °F 62.6 °F 88% 29.99 in 10.0 mi North 3.5 mph - N/A   Clear
2:53 AM 66.2 °F 62.6 °F 88% 29.99 in 10.0 mi North 8.1 mph - N/A   Clear
3:13 AM 66.2 °F 62.6 °F 88% 30.00 in 10.0 mi North 10.4 mph - N/A   Scattered Clouds
3:34 AM 66.2 °F 62.6 °F 88% 30.01 in 10.0 mi NNE 10.4 mph - N/A   Scattered Clouds
3:53 AM 66.2 °F 62.6 °F 88% 30.01 in 10.0 mi North 8.1 mph - N/A   Mostly Cloudy
4:13 AM 66.2 °F 60.8 °F 83% 30.02 in 10.0 mi North 9.2 mph - N/A   Overcast
4:34 AM 64.4 °F 60.8 °F 88% 30.02 in 10.0 mi North 9.2 mph - N/A   Overcast
4:53 AM 64.4 °F 60.8 °F 88% 30.03 in 10.0 mi North 9.2 mph - N/A   Scattered Clouds
5:14 AM 64.4 °F 60.8 °F 88% 30.03 in 10.0 mi North 8.1 mph - N/A   Mostly Cloudy
5:33 AM 64.4 °F 60.8 °F 88% 30.04 in 10.0 mi North 9.2 mph - N/A   Overcast
5:53 AM 64.4 °F 59.0 °F 83% 30.04 in 10.0 mi North 11.5 mph - N/A   Overcast
6:14 AM 64.4 °F 59.0 °F 83% 30.05 in 10.0 mi North 8.1 mph - N/A   Overcast
6:33 AM 62.6 °F 59.0 °F 88% 30.06 in 10.0 mi NE 10.4 mph - N/A   Scattered Clouds
8:33 AM 64.4 °F 57.2 °F 77% 30.09 in 10.0 mi North 10.4 mph - N/A   Clear
9:13 AM 64.4 °F 57.2 °F 77% 30.10 in 10.0 mi NNE 5.8 mph - N/A   Clear
9:33 AM 64.4 °F 57.2 °F 77% 30.10 in 10.0 mi ENE 5.8 mph - N/A   Clear
10:13 AM 66.2 °F 57.2 °F 73% 30.11 in 10.0 mi East 3.5 mph - N/A   Clear
10:33 AM 66.2 °F 57.2 °F 73% 30.11 in 10.0 mi East 3.5 mph - N/A   Clear
10:54 AM 66.2 °F 57.2 °F 73% 30.11 in 10.0 mi Calm Calm - N/A   Clear
11:13 AM 66.2 °F 57.2 °F 73% 30.12 in 10.0 mi ESE 6.9 mph - N/A   Clear
11:33 AM 68.0 °F 57.2 °F 68% 30.12 in 10.0 mi ESE 5.8 mph - N/A   Clear
11:54 AM 69.8 °F 57.2 °F 64% 30.11 in 10.0 mi ESE 6.9 mph - N/A   Clear
12:13 PM 69.8 °F 57.2 °F 64% 30.11 in 10.0 mi ESE 6.9 mph - N/A   Clear
12:33 PM 69.8 °F 57.2 °F 64% 30.11 in 10.0 mi East 5.8 mph - N/A   Clear
12:54 PM 69.8 °F 57.2 °F 64% 30.11 in 10.0 mi East 6.9 mph - N/A   Clear
1:13 PM 69.8 °F 59.0 °F 68% 30.11 in 10.0 mi East 5.8 mph - N/A   Clear
1:33 PM 69.8 °F 57.2 °F 64% 30.11 in 10.0 mi East 4.6 mph - N/A   Clear
1:54 PM 71.6 °F 57.2 °F 60% 30.10 in 10.0 mi East 3.5 mph - N/A   Clear
2:13 PM 71.6 °F 53.6 °F 53% 30.10 in 10.0 mi East 3.5 mph - N/A   Clear
2:34 PM 73.4 °F 55.4 °F 53% 30.09 in 10.0 mi East 3.5 mph - N/A   Clear
3:13 PM 73.4 °F 55.4 °F 53% 30.09 in 10.0 mi East 3.5 mph - N/A   Clear
3:34 PM 73.4 °F 57.2 °F 57% 30.08 in 10.0 mi ESE 4.6 mph - N/A   Clear
3:53 PM 73.4 °F 57.2 °F 57% 30.08 in 10.0 mi ESE 6.9 mph - N/A   Clear
4:13 PM 75.2 °F 57.2 °F 53% 30.08 in 10.0 mi East 4.6 mph - N/A   Clear
4:34 PM 75.2 °F 57.2 °F 53% 30.08 in 10.0 mi East 3.5 mph - N/A   Clear
4:53 PM 73.4 °F 57.2 °F 57% 30.08 in 10.0 mi ESE 4.6 mph - N/A   Clear
5:13 PM 73.4 °F 57.2 °F 57% 30.08 in 10.0 mi East 3.5 mph - N/A   Clear
5:34 PM 75.2 °F 59.0 °F 57% 30.08 in 10.0 mi East 3.5 mph - N/A   Clear
5:53 PM 73.4 °F 59.0 °F 61% 30.08 in 10.0 mi East 3.5 mph - N/A   Clear
6:13 PM 75.2 °F 60.8 °F 61% 30.08 in 10.0 mi East 4.6 mph - N/A   Clear
6:34 PM 73.4 °F 60.8 °F 65% 30.08 in 10.0 mi Calm Calm - N/A   Clear
6:53 PM 71.6 °F 62.6 °F 73% 30.08 in 10.0 mi NNE 6.9 mph - N/A   Clear
7:53 PM 68.0 °F 60.8 °F 78% 30.09 in 10.0 mi ENE 13.8 mph - N/A   Clear
8:33 PM 66.2 °F 60.8 °F 83% 30.10 in 10.0 mi NE 10.4 mph - N/A   Clear
8:53 PM 66.2 °F 60.8 °F 83% 30.10 in 10.0 mi NE 10.4 mph - N/A   Clear
9:53 PM 64.4 °F 60.8 °F 88% 30.12 in 10.0 mi NE 9.2 mph - N/A   Clear
11:13 PM 64.4 °F 55.4 °F 73% 30.13 in 10.0 mi ENE 4.6 mph - N/A   Clear
11:34 PM 64.4 °F 55.4 °F 73% 30.14 in 10.0 mi ENE 4.6 mph - N/A   Clear
11:53 PM 64.4 °F 55.4 °F 73% 30.13 in 10.0 mi East 3.5 mph - N/A   Clear